Regional Weather Roundup
Issued by NWS Newport/Morehead, NC

Current Version | Previous Version | Graphics & Text | Print | Product List | Glossary Off
Versions: 1 2 3 4 5 6 7 8 9 10 11 12 13 14 15 16 17 18 19 20 21 22 23 24 25 26 27 28 29 30 31 32 33 34 35 36 37 38 39 40 41 42 43 44 45 46 47 48 49 50

950
ASUS42 KMHX 221225
RWRMHX
WEATHER ROUNDUP FOR EASTERN NORTH CAROLINA
NATIONAL WEATHER SERVICE NEWPORT/MOREHEAD CITY NC
700 AM EST SUN JAN 22 2017

NOTE: "FAIR" INDICATES FEW OR NO CLOUDS BELOW 12,000 FEET
WITH NO SIGNIFICANT WEATHER AND/OR OBSTRUCTIONS TO VISIBILITY

NCZ015>017-031-032-045>047-102-103-221300-
NORTH COAST

CITY           SKY/WX    TMP DP  RH WIND       PRES   REMARKS
EDENTON        FOG       56  56 100 CALM      29.65R VSB 1/2
ELIZABETH CITY FOG       54  54 100 W5        29.63R VSB 1/2
KITTY HAWK     NOT AVBL
MANTEO         CLOUDY    57  57 100 W6        29.63S

$$

NCZ045>047-081-094-103-104-221300-
CENTRAL COAST

CITY           SKY/WX    TMP DP  RH WIND       PRES   REMARKS
FRISCO         CLOUDY    60  57  89 W13G22    29.66R FOG

$$

NCZ095-097-098-100-101-221300-
SOUTHERN COAST

CITY           SKY/WX    TMP DP  RH WIND       PRES   REMARKS
BEAUFORT       CLOUDY    59  57  93 W9        29.67S
CEDAR ISLAND   NOT AVBL
JACKSONVILLE   CLOUDY    59  58  96 W7        29.67S
PINEY ISLAND   CLOUDY   N/A N/A N/A SW8       29.66S
WILMINGTON     CLOUDY    59  58  96 SW10      29.70R


$$

NCZ011>013-027>030-043-044-078>080-089-090>093-098-221300-
COASTAL PLAIN

CITY           SKY/WX    TMP DP  RH WIND       PRES   REMARKS
AHOSKIE          N/A     50  50  99 CALM      29.67R FOG
CLINTON        CLOUDY    60  59  97 SW3       29.70R
ELIZABETHTOWN  CLOUDY    60  58  94 SW7       29.70S
GOLDSBORO      CLOUDY    61  61 100 SW9       29.66R
GREENVILLE     CLOUDY    59  59 100 W3        29.70R FOG
HAVELOCK       CLOUDY    57  55  93 SW7       29.68R
KENANSVILLE    CLOUDY    59  57  94 SW8       29.69R
KINSTON        CLOUDY    61  59  94 SW8       29.68R
NEW BERN       CLOUDY    59  57  93 SW6       29.68R
RICHLANDS      CLOUDY    59  58  96 SW8       29.68R
ROCKY MOUNT    CLOUDY    53  53 100 SW3       29.68R FOG
WASHINGTON     CLOUDY    59  59 100 SW6         N/A
WHITEVILLE     LGT RAIN  60  58  92 SW5       29.71R

$$

AMZ130-135-150-152-154-156-158-170-250-252-270-ANZ085-086-088-633-658-670-221300-
MARINE OBSERVATIONS

STATION/POSITION TIME  TEMP    WIND        PRES    WAVE   SWELL
                       AIR SEA DIR/SP/G            HT/PER HT/PER
                 (UTC) (F)     (DEG/KT/KT) (MB)    (FT/S) (FT/S)
CHESAPEAKE LIGHT NOT AVBL
64 E VA BEACH    1150   56 58  270/ 12/ 12 1002.0    6/ 7   5/ 7
DUCK             1200   56 45  270/  7/  9 1002.5
2 E DUCK         1200      46                N/A     4/ 6   2/13
OREGON INLET     1200   52 51  210/ 10/ 11 1003.5
13E OREGON INLT  NOT AVBL
HATTERAS CG      1200   60 54  240/ 11/ 16 1004.1
DIAMOND BUOY     1150   66 73  240/ 23/ 29 1003.8    6/ 5   3/13
CAPE LOOKOUT     1200   59     250/ 11/ 13 1004.2
BEAUFORT LAB     1200   58 52  250/  5/  9 1003.7
30 SE NEW RVR IN 1208   61 65  270/ 16/ 21 1005.3
30 SE NEW RVR IN 1213      65                N/A     6/ 6   2/11
27 SE WRIGHTSVLE 1208   62 67  240/ 12/ 17 1004.8
5 SE WRIGHTSVLE  1208   56     280/  8/ 12 1005.0
225 S CAPE HAT   1150   72 71  210/ 17/ 23 1007.8    7/ 7   2/13
41 SE CHARLESTON 1150   64 68  300/ 16/ 19 1004.7    4/ 6   2/ 8

$$




USA.gov is the U.S. government's official web portal to all federal, state and local government web resources and services.